This demonstration page uses our WeatherBlox Daily Observations layout. Learn more.

Left ArrowRight Arrow

38.89511, -77.03637

Hourly Observations for January 30, 2021

Temp ( °F °C ) Dew Point ( °F °C ) Humidity (%) Winds ( mph kmh ) Pressure ( in mb ) Visibility ( mi km ) Precip ( " mm )
12:52 am 00:52 Cloudy 29 -1.7 9 -12.8 43 43 W 12 19 30.34 1027 10 16 0.00 0.00
1:52 am 01:52 Cloudy 28 -2.2 9 -12.8 44 44 WNW 10 17 30.34 1027 10 16 0.00 0.00
2:52 am 02:52 Mostly Cloudy 27 -2.8 9 -12.8 46 46 WNW 7 11 30.33 1027 10 16 0.00 0.00
3:52 am 03:52 Mostly Clear 26 -3.3 9 -12.8 48 48 W 7 11 30.34 1027 10 16 0.00 0.00
4:52 am 04:52 Partly Cloudy 25 -3.9 9 -12.8 50 50 W 9 15 30.35 1028 10 16 0.00 0.00
5:52 am 05:52 Mostly Clear 24 -4.4 10 -12.2 55 55 W 8 13 30.35 1028 10 16 0.00 0.00
6:52 am 06:52 Mostly Clear 24 -4.4 10 -12.2 55 55 W 7 11 30.37 1028 10 16 0.00 0.00
7:52 am 07:52 Mostly Sunny 25 -3.9 11 -11.7 55 55 W 8 13 30.39 1029 10 16 0.00 0.00
8:52 am 08:52 Mostly Sunny 28 -2.2 12 -11.1 51 51 NW 13 20 30.40 1029 10 16 0.00 0.00
9:52 am 09:52 Sunny 31 -0.6 12 -11.1 45 45 NW 12 19 30.40 1030 10 16 0.00 0.00
10:52 am 10:52 Mostly Sunny 33 0.6 12 -11.1 42 42 NW 14 22 30.41 1030 10 16 0.00 0.00
11:52 am 11:52 Mostly Sunny 35 1.7 12 -11.1 38 38 VRB 6 9 30.40 1030 10 16 0.00 0.00
12:52 pm 12:52 Partly Cloudy 36 2.2 12 -11.1 37 37 N 8 13 30.37 1028 10 16 0.00 0.00
1:52 pm 13:52 Partly Cloudy 38 3.3 11 -11.7 33 33 Calm 30.33 1027 10 16 0.00 0.00
2:52 pm 14:52 Mostly Cloudy 39 3.9 12 -11.1 33 33 NNW 7 11 30.32 1027 10 16 0.00 0.00
3:52 pm 15:52 Partly Cloudy 38 3.3 12 -11.1 34 34 ESE 5 7 30.32 1027 10 16 0.00 0.00
4:52 pm 16:52 Mostly Cloudy 37 2.8 13 -10.6 37 37 Calm 30.32 1027 10 16 0.00 0.00
5:52 pm 17:52 Mostly Clear 33 0.6 15 -9.4 47 47 S 7 11 30.33 1027 10 16 0.00 0.00
6:52 pm 18:52 Mostly Clear 33 0.6 15 -9.4 47 47 SSW 6 9 30.34 1028 10 16 0.00 0.00
7:52 pm 19:52 Partly Cloudy 34 1.1 18 -7.8 52 52 Calm 30.33 1027 10 16 0.00 0.00
8:52 pm 20:52 Cloudy 32 0 18 -7.8 56 56 S 6 9 30.34 1027 10 16 0.00 0.00
9:52 pm 21:52 Cloudy 33 0.6 17 -8.3 52 52 S 6 9 30.32 1027 10 16 0.00 0.00
10:52 pm 22:52 Cloudy 34 1.1 14 -10 44 44 Calm 30.32 1027 10 16 0.00 0.00
11:52 pm 23:52 Cloudy 34 1.1 17 -8.3 50 50 S 7 11 30.31 1026 10 16 0.00 0.00

Powered by AerisWeather